DMSP 5D-2 F13 DEB, 42298

Orbit data source: Space-Track

DMSP 5D-2 F13 DEB, 42298 is space debris in SSO originally from a launch on Fri, 24 Mar 1995 UTC launched from the Air Force Western Test Range (AFWTR). Debris objects in space refer to the collection of defunct objects orbiting the Earth. Examples of debris include non-operational satellites, rocket bodies, and fragments generated from explosions, collisions, or faulty payload assembly.

Loading next visibility...
Identifier
42298, 1995-015HQ
Orbit
SSO
Country
Flag of USUS
Related business
Manufacturer
Unknown
Mission
Spacecraft
Bus & Motor
Unknown
Mass
Unknown
Launch date (UTC)
1995-03-24 (31 years ago)
Launch vehicle
Unknown
Launch site
Air Force Western Test Range (AFWTR)
Object type
Payload
Rocket body
Debris
Shape & HBR
Unknown shape, 0.1 m
Radar Cross Section
Small (<0.1 m²)

Expand to show TLE details & history
Last TLE update: 1 day ago

TLE from 1 day ago
0 DMSP 5D-2 F13 DEB
1 42298U 95015HQ  25288.19202909  .00002925  00000-0  27257-2 0  9995
2 42298  98.7165 270.0651 0254812 183.9263 175.9890 13.69136268500265
Epoch: 2025-10-15T04:36Z
TLE epoch observation values (Epoch: 2025-10-15T04:36:31.313Z)
Latitude
0.00005°
Longitude
176.96499°
Altitude
1,193.189 km
Speed
7.164 km/s
True Right ascension
18h 00m 15s
True Declination
0° 00' 00"
Sunlit
Object was in daylight at epoch
Visualization orbit readout
Latitude
Unknown
Longitude
Unknown
Altitude
Unknown
Speed
Unknown
Apparent Right ascension
Unknown
Apparent Declination
Unknown
Sunlit
N/A
Visualization observer readout
Local Sidereal Time
04:21:39
Azimuth
Unknown
Elevation
Unknown
Doppler factor
Unknown
Orbital elements
Apogee altitude
1,187.899 km
Perigee altitude
811.897 km
Semi-major axis
7,378.035 km
Eccentricity
0.02548
Inclination
98.7165°
RAAN
270.0651°
Arg. of periapsis
183.9263°
True anomaly
176.18695°
Mean anomaly
175.989°
Eccentric anomaly
176.08859°
Mean motion
3.42478 °/min
Orbital period
105.12 mins
BSTAR
0.0027257

Documentation

Showing up to 5 results
|